EN

Hourly Weather Torhovytsya

Today, 13 April, Tuesday

Time Temperature Precipitation Wind Pressure Humidity
00:00 +8°C° 0 mm 2 mps 738 mmHg 95%
01:00 +8°C° 0 mm 2 mps 737 mmHg 95%
02:00 +7°C° 0 mm 2 mps 737 mmHg 95%
03:00 +7°C° 0 mm 2 mps 737 mmHg 94%
04:00 +7°C° 0 mm 2 mps 737 mmHg 94%
05:00 +6°C° 0 mm 2 mps 737 mmHg 95%
06:00 +5°C° 0 mm 2 mps 736 mmHg 97%
07:00 +6°C° 0 mm 2 mps 737 mmHg 98%
08:00 +8°C° 0 mm 2 mps 737 mmHg 98%
09:00 +10°C° 0 mm 3 mps 737 mmHg 96%
10:00 +12°C° 0 mm 4 mps 737 mmHg 91%
11:00 +14°C° 0 mm 4 mps 737 mmHg 88%
12:00 +15°C° 0 mm 4 mps 737 mmHg 84%
13:00 +16°C° 0 mm 5 mps 736 mmHg 84%
14:00 +16°C° 0 mm 5 mps 736 mmHg 82%
15:00 +16°C° 0 mm 6 mps 735 mmHg 79%
16:00 +16°C° 0 mm 6 mps 735 mmHg 79%
17:00 +15°C° 0 mm 5 mps 735 mmHg 82%
18:00 +15°C° 0 mm 4 mps 735 mmHg 83%
19:00 +13°C° 0 mm 3 mps 734 mmHg 88%
20:00 +13°C° 0 mm 2 mps 734 mmHg 94%
21:00 +10°C° 0 mm 4 mps 734 mmHg 98%
22:00 +7°C° 0 mm 5 mps 733 mmHg 98%
23:00 +7°C° 0 mm 4 mps 733 mmHg 98%

Tomorrow, 14 April, Wednesday

Time Temperature Precipitation Wind Pressure Humidity
00:00 +6°C° 0 mm 4 mps 732 mmHg 98%
01:00 +6°C° 0 mm 4 mps 732 mmHg 98%
02:00 +5°C° 0 mm 4 mps 731 mmHg 98%
03:00 +4°C° 0 mm 4 mps 731 mmHg 99%
04:00 +3°C° 0 mm 5 mps 731 mmHg 99%
05:00 +3°C° 0 mm 4 mps 731 mmHg 99%
06:00 +3°C° 0.2 mm 3 mps 730 mmHg 100%
07:00 +3°C° 0.9 mm 3 mps 731 mmHg 99%
08:00 +3°C° 0 mm 3 mps 731 mmHg 99%
09:00 +3°C° 0 mm 3 mps 731 mmHg 98%
10:00 +3°C° 0 mm 3 mps 731 mmHg 98%
11:00 +4°C° 0 mm 3 mps 731 mmHg 97%
12:00 +4°C° 0 mm 4 mps 731 mmHg 97%
13:00 +4°C° 0 mm 4 mps 731 mmHg 97%
14:00 +3°C° 0.3 mm 4 mps 731 mmHg 100%
15:00 +3°C° 0.1 mm 5 mps 731 mmHg 98%
16:00 +3°C° 0 mm 6 mps 730 mmHg 97%
17:00 +3°C° 0 mm 5 mps 731 mmHg 97%
18:00 +2°C° 0 mm 5 mps 730 mmHg 98%
19:00 +1°C° 0.2 mm 4 mps 731 mmHg 100%
20:00 +1°C° 0.1 mm 4 mps 731 mmHg 99%
21:00 0°C° 0.2 mm 5 mps 731 mmHg 100%
22:00 0°C° 0.4 mm 5 mps 730 mmHg 100%
23:00 0°C° 0.4 mm 5 mps 730 mmHg 100%

Day after tomorrow, 15 April, Thursday

Time Temperature Precipitation Wind Pressure Humidity
00:00 0°C° 0.1 mm 5 mps 730 mmHg 99%
01:00 0°C° 0 mm 5 mps 730 mmHg 99%
02:00 0°C° 0.1 mm 4 mps 730 mmHg 99%
03:00 0°C° 0 mm 4 mps 729 mmHg 99%
04:00 0°C° 0.1 mm 3 mps 729 mmHg 100%
05:00 0°C° 0.9 mm 3 mps 729 mmHg 100%
06:00 -1°C° 0.9 mm 4 mps 729 mmHg 100%
07:00 -1°C° 0.6 mm 4 mps 729 mmHg 100%
08:00 -1°C° 0.4 mm 4 mps 729 mmHg 100%
09:00 +1°C° 0.7 mm 3 mps 730 mmHg 100%
10:00 +1°C° 0.4 mm 4 mps 730 mmHg 99%
11:00 +3°C° 0.1 mm 4 mps 730 mmHg 98%
12:00 +4°C° 0 mm 4 mps 730 mmHg 96%
13:00 +5°C° 0 mm 4 mps 730 mmHg 93%
14:00 +6°C° 0 mm 4 mps 730 mmHg 95%
15:00 +6°C° 0.1 mm 4 mps 730 mmHg 95%
16:00 +7°C° 0 mm 3 mps 730 mmHg 93%
17:00 +7°C° 0 mm 3 mps 729 mmHg 94%
18:00 +6°C° 0 mm 4 mps 730 mmHg 94%
19:00 +5°C° 0 mm 4 mps 730 mmHg 98%
20:00 +4°C° 0 mm 3 mps 730 mmHg 97%
21:00 +5°C° 0 mm 2 mps 730 mmHg 99%
22:00 +4°C° 0 mm 2 mps 729 mmHg 99%
23:00 +3°C° 0 mm 3 mps 730 mmHg 99%

16 April, Friday

Time Temperature Precipitation Wind Pressure Humidity
00:00 +3°C° 0 mm 3 mps 729 mmHg 100%
01:00 +2°C° 0 mm 3 mps 729 mmHg 100%
02:00 +3°C° 0 mm 2 mps 729 mmHg 100%
03:00 +3°C° 0 mm 2 mps 729 mmHg 100%
04:00 +3°C° 0 mm 2 mps 729 mmHg 100%
05:00 +2°C° 0 mm 3 mps 729 mmHg 99%
06:00 +3°C° 0 mm 3 mps 729 mmHg 100%
07:00 +3°C° 0 mm 3 mps 729 mmHg 99%
08:00 +4°C° 0 mm 4 mps 729 mmHg 98%
09:00 +4°C° 0 mm 4 mps 729 mmHg 96%
10:00 +5°C° 0 mm 3 mps 730 mmHg 94%
11:00 +7°C° 0 mm 4 mps 730 mmHg 88%
12:00 +7°C° 0 mm 4 mps 730 mmHg 92%
13:00 +8°C° 0 mm 5 mps 730 mmHg 92%
14:00 +8°C° 0 mm 5 mps 730 mmHg 92%
15:00 +8°C° 0 mm 5 mps 731 mmHg 92%
16:00 +7°C° 0 mm 5 mps 731 mmHg 93%
17:00 +7°C° 0 mm 4 mps 731 mmHg 93%
18:00 +9°C° 0 mm 3 mps 731 mmHg 92%
19:00 +8°C° 0 mm 2 mps 732 mmHg 96%
20:00 +9°C° 0 mm 1 mps 732 mmHg 96%
21:00 +7°C° 0 mm 3 mps 733 mmHg 99%
22:00 +7°C° 0.2 mm 3 mps 733 mmHg 100%
23:00 +5°C° 0.6 mm 3 mps 733 mmHg 100%

17 April, Saturday

Time Temperature Precipitation Wind Pressure Humidity
00:00 +6°C° 0.6 mm 2 mps 734 mmHg 100%
01:00 +6°C° 0.2 mm 2 mps 733 mmHg 100%
02:00 +7°C° 0 mm 1 mps 734 mmHg 100%
03:00 +7°C° 0 mm 1 mps 734 mmHg 100%
04:00 +7°C° 0 mm 1 mps 734 mmHg 100%
05:00 +7°C° 0.1 mm 1 mps 735 mmHg 100%
06:00 +6°C° 0 mm 1 mps 735 mmHg 100%
07:00 +7°C° 0 mm 1 mps 736 mmHg 100%
08:00 +8°C° 0 mm 1 mps 736 mmHg 98%
09:00 +8°C° 0 mm 2 mps 737 mmHg 97%
10:00 +9°C° 0 mm 3 mps 737 mmHg 92%
11:00 +10°C° 0.3 mm 3 mps 737 mmHg 91%
12:00 +10°C° 0.1 mm 4 mps 738 mmHg 90%
13:00 +11°C° 0 mm 4 mps 738 mmHg 88%
14:00 +10°C° 0 mm 5 mps 738 mmHg 89%
15:00 +10°C° 0 mm 5 mps 738 mmHg 87%
16:00 +10°C° 0 mm 5 mps 738 mmHg 86%
17:00 +10°C° 0 mm 5 mps 738 mmHg 86%
18:00 +9°C° 0 mm 5 mps 738 mmHg 87%
19:00 +10°C° 0 mm 4 mps 738 mmHg 93%
20:00 +8°C° 0 mm 4 mps 739 mmHg 95%
21:00 +8°C° 0 mm 3 mps 739 mmHg 97%
22:00 +7°C° 0 mm 3 mps 739 mmHg 99%
23:00 +6°C° 0 mm 2 mps 739 mmHg 100%

18 April, Sunday

Time Temperature Precipitation Wind Pressure Humidity
00:00 +6°C° 0 mm 2 mps 739 mmHg 100%
01:00 +5°C° 0 mm 2 mps 739 mmHg 100%
02:00 +6°C° 0 mm 2 mps 740 mmHg 100%
03:00 +5°C° 0 mm 3 mps 740 mmHg 100%
04:00 +5°C° 0 mm 3 mps 740 mmHg 100%
05:00 +5°C° 0 mm 3 mps 740 mmHg 100%
06:00 +5°C° 0 mm 3 mps 740 mmHg 100%
07:00 +5°C° 0 mm 3 mps 740 mmHg 100%
08:00 +5°C° 0 mm 3 mps 740 mmHg 100%
09:00 +7°C° 0 mm 3 mps 741 mmHg 100%
10:00 +7°C° 0 mm 4 mps 741 mmHg 99%
11:00 +8°C° 0 mm 4 mps 741 mmHg 98%
12:00 +9°C° 0 mm 5 mps 741 mmHg 96%
13:00 +10°C° 0 mm 6 mps 741 mmHg 88%
14:00 +10°C° 0 mm 6 mps 741 mmHg 86%
15:00 +11°C° 0 mm 6 mps 741 mmHg 84%
16:00 +11°C° 0 mm 7 mps 740 mmHg 82%
17:00 +10°C° 0 mm 7 mps 740 mmHg 89%
18:00 +10°C° 0.1 mm 6 mps 740 mmHg 91%
19:00 +9°C° 0 mm 5 mps 740 mmHg 93%
20:00 +8°C° 0 mm 5 mps 741 mmHg 96%
21:00 +8°C° 0 mm 5 mps 741 mmHg 96%
22:00 +8°C° 0 mm 4 mps 741 mmHg 98%
23:00 +8°C° 0 mm 4 mps 741 mmHg 99%
Show more

We Need Your Consent

Meteoprog and our Service Providers may store and access personal data such as cookies, device identifiers or other similar technologies on your device and process such data to personalise content and ads, as well as provide social media features and to analyse the traffic.

  • Store and/or access information on your device

    Cookies, device identifiers or other information can be stored or accessed on your device for the purposes indicated above.

  • Personalised ads and content, ad and content measurement, audience insights, and products development

    Ads and content can be personalised based on a profile. More data can be added to better personalise ads and content. Ad and content performance can be measured. Insights about the audience who saw the ads and content can be derived. Such data can be used to develop or improve user’s experience, systems and software.

By clicking ‘I Agree’ you will allow the use of indicated cookies, device identifiers, web beacons or other similar technologies. Your settings can be changed in the browser on your device.

For certain purposes, legitimate interests may be relied on, rather than consent. You can read more about this in our Privacy and Cookie Policy.